CAPE
0 0 0 0 0 0 0 0 13 5 0 0 13 42 29 76 22 39 474 463 431 458 602 641 625 633 771 826 882 974 926 906 881 900 871 770 700 599 440 309 303 436 507 603 706 985 1215 1079 871
0 0 0 0 0 0 0 1 0 0 0 2 2 1 0 21 73 294 436 456 595 552 630 692 706 788 866 862 902 909 918 944 980 1096 1060 919 720 429 224 228 245 311 336 377 342 324 256 222 226
0 0 0 0 0 0 0 4 0 0 0 0 24 0 0 25 108 263 622 803 809 640 703 788 830 1005 1023 977 882 886 925 1068 1092 1130 861 700 402 214 135 67 32 44 56 96 114 102 115 144 200
0 0 0 0 0 0 0 0 0 0 0 0 0 0 0 0 143 356 774 850 630 631 812 925 1048 1168 1144 1146 1086 1008 954 932 987 792 609 432 229 79 14 0 0 0 0 0 0 0 0 0 0
0 0 0 0 0 0 0 0 0 0 5 15 0 0 0 31 100 173 529 426 289 612 788 938 1019 1013 1007 1001 913 736 574 484 429 285 270 179 53 3 0 0 0 0 0 0 0 0 0 0 0
0 0 0 0 0 0 0 0 10 9 0 98 76 43 0 0 11 28 129 171 142 285 496 544 463 372 319 275 176 103 104 139 103 76 77 14 0 0 0 0 0 0 0 0 0 0 0 0 0
0 0 0 0 0 1 0 0 0 0 0 85 96 45 2 0 0 0 3 161 95 50 8 25 9 0 0 3 14 6 1 0 0 0 0 0 1 0 0 0 0 0 0 0 0 0 0 0 0
0 0 0 0 0 0 0 0 0 0 0 0 92 101 69 0 0 0 0 6 1 15 18 0 0 0 0 0 0 0 0 0 0 0 0 23 16 0 0 0 0 0 0 0 0 0 0 0 0
0 0 0 0 0 0 0 0 0 0 0 15 3 112 105 0 0 0 0 0 14 92 119 101 85 55 0 0 0 0 0 8 44 72 52 99 110 48 35 19 0 0 0 0 0 0 0 0 0
0 0 0 0 0 0 0 0 0 0 0 43 126 137 62 0 0 0 0 0 70 112 189 135 104 342 0 0 0 0 48 199 223 304 302 207 198 233 78 40 22 5 0 0 0 0 0 0 0
0 0 0 0 0 0 0 0 0 0 0 0 227 175 101 32 0 0 0 0 73 155 307 195 19 10 56 70 42 71 137 260 364 396 119 193 80 231 34 74 25 0 2 0 0 0 0 0 0
0 0 0 0 0 0 0 0 0 0 0 0 230 396 263 139 33 0 0 0 81 229 547 359 139 48 9 0 34 43 84 49 475 243 244 108 46 7 0 0 0 0 0 0 0 0 0 0 0
0 0 0 0 0 0 0 0 0 0 0 0 42 367 291 185 133 12 0 0 69 347 780 506 49 0 48 197 126 82 119 26 33 121 16 2 30 0 0 0 0 0 0 0 0 0 0 0 0
0 0 0 0 0 0 0 0 0 0 0 0 0 168 136 135 110 80 37 4 19 272 884 358 282 300 50 253 284 199 102 6 65 0 0 0 0 4 0 0 0 0 0 4 0 0 0 0 0
0 0 0 0 0 0 0 0 0 0 0 0 0 36 73 157 168 185 131 83 22 254 615 201 207 352 210 290 223 303 1 0 0 0 0 0 0 0 0 0 0 0 0 12 13 7 6 0 0
0 0 0 0 0 0 0 0 0 0 0 0 0 0 5 139 188 230 131 162 28 499 516 28 18 133 78 181 60 1 0 0 0 0 0 0 0 0 0 0 0 0 0 0 0 3 23 23 3
0 0 0 0 0 0 0 0 0 0 0 0 0 0 0 0 19 127 130 107 70 360 269 62 3 175 62 0 5 5 0 0 0 0 0 0 0 0 0 0 0 0 0 0 0 0 0 0 0
0 0 0 0 0 0 0 0 0 0 0 0 0 0 0 0 17 39 22 17 3 113 195 0 132 76 11 3 8 0 0 0 0 0 0 0 0 0 0 0 0 0 0 0 0 0 0 0 0
0 0 0 0 0 0 0 0 0 0 0 0 0 0 0 3 0 0 1 0 42 217 86 52 11 0 1 3 0 0 0 0 0 0 0 0 0 0 0 0 0 0 0 0 0 0 0 0 0
0 0 0 0 0 0 0 0 0 0 0 0 0 0 0 0 0 0 0 0 0 0 0 0 0 0 0 0 0 0 0 0 0 0 0 0 0 0 0 0 0 0 0 0 0 0 0 0 0
0 0 0 0 0 0 0 0 0 0 0 0 0 0 0 0 0 0 0 0 0 0 0 0 0 0 0 0 0 0 0 0 0 0 0 0 0 0 0 0 0 0 0 0 0 0 0 0 0
0 0 0 0 0 0 0 0 0 0 0 0 0 0 0 0 0 0 0 0 0 0 0 0 0 0 0 0 0 0 0 0 0 0 0 0 0 0 0 0 0 0 0 0 0 0 0 0 0
0 0 0 0 0 0 0 0 0 0 0 0 0 0 0 0 0 0 0 0 0 0 0 0 0 0 0 0 0 0 0 0 0 0 0 0 0 0 0 0 0 0 0 0 0 0 0 0 0
0 0 0 0 0 2 17 15 0 0 0 0 0 0 0 0 0 0 0 0 0 0 0 0 0 0 0 0 0 0 0 0 0 0 0 0 0 0 0 0 0 0 0 0 0 0 0 0 3
0 0 4 7 11 4 24 1 1 0 0 0 0 0 0 0 0 0 0 0 0 0 0 0 0 0 0 0 0 0 0 0 0 0 0 0 0 0 0 0 0 0 0 0 0 0 1 2 1
0 0 0 0 0 0 0 0 0 0 0 0 0 0 0 0 0 0 0 0 0 0 0 0 0 0 0 0 0 0 0 0 0 0 0 0 0 0 0 0 0 0 0 0 0 0 0 0 0
0 0 0 0 0 0 0 0 0 0 0 0 0 0 1 0 0 0 0 0 0 0 0 0 0 0 0 0 0 0 0 0 0 0 0 0 0 0 0 0 0 0 0 1 7 5 0 0 0
0 0 0 0 0 0 0 2 0 0 0 0 0 0 0 0 0 0 0 0 0 0 0 0 0 0 0 0 0 0 0 0 0 0 0 0 0 0 0 0 0 0 0 0 4 0 0 0 0
0 0 0 0 0 0 0 0 6 0 0 0 0 0 0 0 0 0 0 0 0 0 0 0 0 0 0 0 0 0 0 0 0 0 0 0 0 0 0 0 0 1 4 3 4 3 0 2 2
0 0 0 0 0 0 0 0 0 0 0 0 0 0 0 0 0 0 0 0 0 0 0 0 0 0 0 0 0 0 0 0 0 0 0 0 0 0 0 0 0 0 0 0 0 0 0 0 0
CIN
0 0 0 0 0 0 0 0 -9 -41 0 0 -162 -153 -164 -100 -83 -59 -41 -78 -109 -82 -59 -73 -81 -82 -65 -56 -32 -16 -31 -37 -38 -32 -33 -53 -69 -87 -102 -117 -125 -94 -87 -79 -77 -62 -38 -60 -97
0 0 0 0 0 0 0 -9 0 0 0 -45 -135 -117 -73 -194 -146 -45 -29 -77 -81 -60 -75 -77 -76 -68 -57 -55 -48 -50 -45 -30 -20 -11 -11 -25 -51 -89 -123 -133 -136 -112 -103 -97 -118 -141 -176 -199 -193
0 0 0 0 0 0 0 -27 0 0 0 -34 -152 0 0 -226 -146 -53 -40 -90 -87 -81 -79 -64 -60 -40 -37 -34 -57 -56 -44 -14 -15 -11 -38 -58 -104 -131 -170 -216 -282 -266 -257 -222 -229 -262 -259 -227 -209
0 0 0 0 0 0 -21 0 0 0 0 -32 -1 0 0 0 -91 -28 -33 -72 -95 -90 -71 -57 -40 -21 -23 -30 -34 -44 -50 -45 -27 -49 -80 -92 -143 -196 -279 0 0 0 0 0 0 0 0 0 0
0 0 0 0 0 0 0 0 0 -21 -99 -81 0 0 0 -127 -85 -47 -51 -130 -185 -122 -85 -67 -49 -54 -60 -53 -65 -84 -103 -130 -137 -178 -154 -166 -229 -270 0 0 0 0 0 0 0 0 0 0 0
0 0 0 0 0 0 0 0 -58 -81 0 -42 -71 -88 0 0 -169 -153 -179 -173 -219 -212 -180 -159 -178 -199 -216 -214 -234 -261 -248 -238 -252 -252 -221 -252 0 0 0 0 0 0 0 0 0 0 0 0 0
0 0 0 0 0 -2 0 0 0 0 -21 -29 -55 -88 -46 0 0 0 -32 -156 -209 -269 -68 -60 -68 -40 0 -100 -352 -385 -87 0 0 0 0 0 -132 0 0 0 0 0 0 0 0 0 0 0 0
0 0 0 0 0 0 0 0 0 0 0 0 -59 -85 -146 -2 0 0 0 -246 -54 -258 -259 0 0 0 0 0 0 0 0 0 0 0 0 -204 -269 0 0 0 0 0 0 0 0 0 0 0 0
0 0 0 0 0 0 0 0 0 0 0 -86 -30 -84 -139 0 0 0 0 0 -225 -181 -167 -184 -222 -237 0 0 0 0 0 -274 -158 -169 -178 -153 -171 -212 -191 -182 0 0 0 0 0 0 0 0 0
0 0 0 0 0 0 0 0 0 0 0 -61 -99 -137 -173 0 0 0 0 0 -171 -115 -129 -169 -162 -109 0 0 0 0 -169 -131 -113 -83 -99 -107 -98 -86 -141 -126 -96 -104 -7 0 0 0 0 0 0
0 0 0 0 0 0 0 0 0 0 0 0 -90 -147 -167 -197 0 0 0 0 -145 -102 -101 -91 -72 -118 -221 -188 -166 -162 -142 -119 -113 -80 -75 -44 -63 -35 -81 -81 -110 0 -27 0 0 0 0 0 0
0 0 0 0 0 0 0 0 0 0 0 0 -106 -118 -118 -132 -168 0 0 0 -153 -106 -43 -66 -114 -135 -40 0 -138 -163 -96 -117 -52 -91 -71 -98 -118 -123 0 0 0 0 0 0 0 0 0 0 0
0 0 0 0 0 0 0 0 0 0 0 0 -166 -96 -127 -133 -134 -142 0 0 -103 -58 -43 -54 -96 0 -87 -75 -81 -71 -95 -110 -117 -104 -142 -96 -124 0 0 0 0 0 0 0 0 0 0 0 0
0 0 0 0 0 0 0 0 0 0 0 0 0 -119 -134 -129 -145 -124 -75 -49 -52 -56 -53 -124 -98 -77 -65 -84 -79 -76 -99 -80 -94 0 0 0 0 -98 0 0 0 0 -5 -60 0 0 0 0 0
0 0 0 0 0 0 0 0 0 0 0 0 0 -104 -98 -77 -116 -105 -61 -37 -50 -113 -137 -159 -77 -51 -83 -76 -75 -102 -24 0 0 0 0 0 0 0 0 0 0 -2 -6 -82 -77 -65 -60 0 0
0 0 0 0 0 0 0 0 0 0 0 0 0 0 -54 -44 -53 -68 -61 -34 -130 -106 -150 -291 -80 -74 -160 -91 -103 -63 -5 0 -17 0 0 0 0 0 0 0 0 0 0 0 0 -61 -48 -49 -16
0 0 0 0 0 0 0 0 0 0 0 0 0 0 0 0 -71 -61 -75 -51 -111 -144 -219 -242 -134 -164 -176 0 -141 -137 -54 0 0 0 0 0 0 0 0 0 0 0 0 0 0 0 0 0 0
0 0 0 0 0 0 0 0 0 0 0 0 0 0 0 0 -98 -122 -130 -133 -135 -181 -203 -1 -219 -194 -164 -60 -100 0 0 0 0 0 0 0 0 0 0 0 0 0 0 0 0 0 0 0 0
0 0 0 0 0 0 0 0 0 0 0 0 0 0 0 -164 0 -1 -90 -1 -257 -241 -251 -251 -243 -95 -93 -156 0 0 0 0 0 0 0 0 0 0 0 0 0 0 0 0 0 0 0 0 0
0 0 0 0 0 0 0 0 0 0 0 0 0 0 0 0 0 0 0 0 0 0 0 0 0 0 0 0 0 0 0 0 0 0 0 0 0 0 0 0 0 0 0 0 0 0 0 0 0
0 0 0 0 0 0 0 0 0 0 0 0 0 0 0 0 0 0 0 0 0 0 0 0 0 0 0 0 0 0 0 0 0 0 0 0 0 0 0 0 0 0 0 0 0 0 0 0 0
0 0 0 0 0 0 0 0 0 0 0 0 0 0 0 0 0 0 0 0 0 0 0 0 0 0 0 0 0 0 0 0 0 0 0 0 0 0 0 0 0 0 0 0 0 0 0 0 0
0 0 0 0 0 0 0 0 0 0 0 0 0 0 0 0 0 0 0 0 0 0 0 0 0 0 0 0 0 0 0 0 0 0 0 0 0 0 0 0 0 0 0 0 0 0 0 0 0
0 0 0 0 0 -27 -49 -28 0 0 0 0 0 0 0 0 0 0 0 0 0 0 0 0 0 0 0 0 0 0 0 0 0 0 0 0 0 0 0 0 0 0 0 0 0 0 0 0 -71
0 0 -46 -25 -39 -10 -65 -54 -22 0 0 0 0 0 0 0 0 0 0 0 0 0 0 0 0 0 0 0 0 0 0 0 0 0 0 0 0 0 0 0 0 0 0 0 0 0 -25 -32 -46
0 0 0 0 0 0 0 0 0 0 0 0 0 0 0 0 0 0 0 0 0 0 0 0 0 0 0 0 0 0 0 0 0 0 0 0 0 0 0 0 0 0 0 0 0 0 0 0 0
0 0 0 0 0 0 0 0 0 0 0 0 0 0 -12 -6 0 0 0 0 0 0 0 0 0 0 0 0 0 0 0 0 0 0 0 0 0 0 0 0 0 0 0 -7 -9 -7 -2 0 0
0 0 0 0 0 0 0 -9 0 0 0 0 0 0 0 -20 0 0 0 0 0 0 0 0 0 0 0 0 0 0 0 0 0 0 0 0 0 0 0 0 0 0 0 0 -10 0 0 0 0
0 0 0 0 0 0 0 0 -18 -5 0 0 0 0 0 0 0 0 0 0 0 0 0 0 0 0 0 0 0 0 0 0 0 0 0 0 0 0 0 0 0 -3 -12 -13 -15 -12 0 -8 -13
0 0 0 0 0 0 0 0 0 0 0 0 0 0 0 0 0 0 0 0 0 0 0 0 0 0 0 0 0 0 0 0 0 0 0 0 0 0 0 0 0 0 0 0 0 -4 -2 0 0
Wind_Speed
22 21 17 16 13 12 16 20 6 10 12 18 17 14 16 16 11 12 11 14 15 14 13 15 16 16 16 17 18 18 19 19 19 20 21 22 23 24 24 24 24 25 26 26 26 26 26 26 26
20 17 15 14 13 14 14 9 12 8 7 16 18 17 18 17 17 16 13 15 16 14 14 15 15 15 16 17 17 17 17 17 17 18 20 22 23 23 23 24 24 25 26 26 26 27 27 25 25
17 16 12 12 11 14 15 7 6 8 11 12 14 20 16 13 13 10 14 14 15 15 14 13 13 15 15 15 15 15 15 15 17 19 20 21 21 22 23 23 24 25 25 26 26 27 27 26 25
12 11 13 10 14 18 1 6 6 11 15 15 13 18 18 14 13 12 14 16 15 14 14 14 14 15 15 15 16 16 17 17 17 19 20 20 21 22 22 23 23 24 25 25 26 26 26 26 26
12 10 10 12 17 7 8 8 10 12 14 14 16 14 16 16 15 14 16 15 15 14 14 14 15 16 17 17 16 16 16 17 18 19 19 20 20 21 21 22 23 24 25 25 26 27 28 28 27
7 8 12 15 12 6 9 10 12 14 12 15 17 16 14 16 13 14 15 14 16 14 13 14 16 16 17 17 17 17 17 18 19 19 19 19 19 20 21 21 22 23 24 25 27 28 29 29 29
5 9 11 16 12 6 9 13 18 11 12 12 13 15 13 14 15 13 13 13 14 17 18 18 17 17 17 17 17 18 18 18 18 18 18 18 19 20 20 20 21 22 23 24 26 28 29 29 29
7 13 15 14 9 8 10 14 17 15 13 15 13 12 12 15 21 16 12 15 20 19 19 18 18 17 18 18 18 18 17 18 17 18 17 17 18 18 18 20 21 22 23 24 24 27 28 28 27
22 18 21 23 19 6 10 11 13 12 12 14 14 12 15 16 14 13 18 20 17 17 16 17 16 16 17 19 17 17 17 17 16 17 16 16 17 16 17 18 19 21 22 23 23 24 24 26 27
10 13 12 14 12 9 9 11 10 9 11 13 9 7 12 14 16 19 20 18 16 16 15 15 14 14 14 16 17 17 17 16 16 16 17 16 16 14 15 17 18 20 20 20 21 22 23 23 25
12 8 11 13 12 12 10 10 10 10 10 11 13 14 15 15 17 18 18 16 15 14 14 11 12 13 13 14 15 14 15 15 14 15 19 19 21 20 20 18 20 21 21 20 21 22 23 23 23
11 12 10 11 12 11 9 8 9 15 22 18 18 19 16 15 15 16 18 16 14 12 11 11 12 12 13 15 13 12 13 15 14 15 18 19 20 21 22 22 22 23 23 22 22 24 27 26 25
9 11 12 12 11 10 7 8 16 8 17 18 16 16 15 15 17 16 14 13 11 9 10 9 11 12 12 13 14 14 14 15 15 16 17 19 20 21 22 23 24 26 27 26 25 28 31 28 28
8 10 8 17 10 13 15 16 15 8 14 15 14 15 14 14 16 15 12 10 9 8 7 11 11 11 11 11 12 13 13 15 16 15 17 18 19 20 22 25 27 28 29 28 29 32 33 31 30
7 5 23 21 10 16 19 19 21 12 13 13 13 13 12 12 13 13 11 10 8 7 8 11 8 10 11 11 12 11 13 16 16 15 15 16 17 19 22 26 28 30 30 32 34 36 35 36 35
21 19 24 23 20 10 10 20 14 11 10 12 12 10 9 9 9 10 9 8 8 7 7 9 8 7 6 9 11 11 14 15 19 20 17 20 22 23 24 27 30 33 35 36 36 38 38 39 38
19 22 24 20 18 10 10 15 15 13 11 10 7 8 8 6 5 9 9 9 7 7 6 4 8 6 8 10 10 12 14 16 18 18 20 22 23 25 28 31 34 36 37 38 39 39 39 41 43
17 16 27 5 10 11 14 15 11 12 11 10 9 9 6 11 10 11 14 17 17 10 9 10 11 7 8 10 13 17 18 20 20 21 23 23 25 27 30 34 38 35 40 39 40 41 41 42 44
14 11 10 9 11 14 15 10 14 16 17 19 17 20 15 15 17 17 18 18 17 15 13 12 11 12 9 11 16 19 18 19 21 22 23 25 27 29 38 37 36 35 35 35 36 37 42 42 41
16 13 12 12 16 17 14 10 10 13 17 17 16 17 16 16 16 16 18 20 18 15 14 15 16 19 17 17 18 20 20 21 21 22 24 29 33 36 35 34 35 35 36 39 40 41 42 39 41
12 13 18 19 21 19 13 10 9 11 14 17 17 17 17 14 14 15 17 19 18 17 17 18 19 19 19 20 21 23 24 25 27 29 33 35 33 32 33 34 36 36 37 40 41 41 42 45 41
13 17 19 21 20 16 10 16 8 9 11 13 16 18 18 17 17 17 17 18 19 19 19 19 19 21 21 23 25 26 26 28 29 31 31 32 34 35 35 36 37 38 40 41 41 40 39 39 43
15 18 17 18 17 16 16 15 7 8 12 11 13 15 15 18 18 18 18 18 18 20 22 22 22 23 23 24 23 25 27 28 28 31 31 34 36 36 37 39 42 43 41 41 39 39 38 38 39
17 19 14 14 14 15 19 11 6 9 7 10 12 13 15 17 18 17 17 17 17 19 21 22 24 27 27 26 25 26 28 30 30 32 35 37 37 38 41 41 41 40 40 38 38 37 37 37 37
20 21 16 15 15 15 18 16 12 11 8 7 10 13 16 18 18 17 16 16 17 19 20 21 24 27 29 26 27 28 28 30 31 35 37 38 39 39 39 39 40 39 40 39 39 39 39 39 39
7 20 17 16 17 19 23 13 11 12 12 13 13 13 13 15 17 19 21 20 20 21 24 24 26 28 31 29 29 30 32 34 35 38 37 37 36 36 39 39 40 41 40 40 40 41 42 41 42
16 21 17 17 16 16 15 13 12 11 10 11 14 13 11 13 15 19 23 22 24 26 28 30 31 31 32 32 33 35 35 34 37 36 32 34 35 36 39 40 41 41 40 40 41 41 41 39 38
22 18 20 19 17 15 15 14 12 9 12 17 16 19 17 15 18 21 22 23 25 28 29 32 33 34 34 34 36 37 37 34 33 31 33 34 35 38 39 40 40 40 39 38 38 38 36 36 34
20 20 21 19 18 16 17 18 13 15 15 17 19 19 19 19 21 23 25 26 29 29 32 35 36 37 35 37 38 37 36 32 31 30 31 33 35 36 35 37 39 40 39 38 36 35 34 34 34
18 20 21 20 19 20 17 15 14 16 19 21 21 19 18 20 21 24 27 30 32 34 38 40 38 37 34 36 37 37 35 32 29 32 33 32 32 30 32 36 39 38 38 37 36 34 31 34 35
Wind_Direction
258 261 285 281 306 305 301 314 333 334 354 21 24 27 37 20 5 355 68 71 71 70 73 64 60 51 44 43 45 43 43 47 43 33 32 31 22 15 14 14 14 11 2 360 1 360 354 348 342
253 274 277 291 309 295 306 12 359 15 31 36 29 30 14 21 41 64 59 71 64 68 70 68 58 52 49 45 40 38 34 26 18 18 13 16 18 22 24 25 23 20 18 14 12 9 1 346 341
270 253 292 322 304 296 287 338 10 349 0 12 1 3 9 35 11 34 74 64 58 63 66 63 54 51 45 39 30 25 19 12 21 21 16 19 24 26 26 24 20 18 14 10 6 4 3 0 348
288 294 288 312 307 315 46 34 353 321 353 30 23 4 25 35 34 57 73 63 58 62 62 62 59 55 48 42 43 37 36 27 19 22 27 31 28 26 25 20 14 14 13 9 6 3 359 356 349
263 282 301 322 326 352 49 31 27 359 352 30 34 40 35 41 65 72 78 67 65 64 63 60 62 59 56 50 42 38 34 33 37 35 38 35 33 30 24 18 13 9 6 2 358 352 348 348 352
317 311 297 300 321 20 23 25 359 354 5 47 53 41 48 55 60 72 74 65 74 70 60 57 60 55 53 53 58 57 52 45 40 39 41 36 37 34 29 27 20 13 7 1 355 347 341 343 342
324 328 323 305 288 354 358 9 359 71 47 60 65 50 63 62 74 72 70 67 69 78 80 76 62 62 59 61 58 56 54 51 45 48 46 48 44 37 39 33 24 17 10 3 355 350 344 341 337
295 315 317 290 301 316 18 11 24 33 33 61 59 31 80 84 95 81 68 76 91 89 88 80 75 68 64 60 61 56 52 53 58 58 54 51 47 43 37 30 22 20 15 8 6 360 354 351 349
231 285 289 225 174 3 17 11 358 1 3 354 318 78 93 90 82 76 91 100 91 91 88 83 76 72 63 57 56 59 61 62 57 59 58 52 42 43 37 28 23 18 16 13 11 9 4 357 353
72 344 315 47 89 42 26 7 353 5 23 15 8 63 85 86 95 110 122 109 96 91 85 76 69 72 63 57 61 65 65 62 59 57 44 42 35 35 33 24 21 15 14 13 11 9 6 5 359
4 28 17 15 71 49 20 29 12 48 39 79 83 93 93 93 112 122 128 118 113 106 92 64 51 59 64 60 66 69 70 63 64 51 30 28 20 26 23 23 16 11 9 7 5 3 1 359 358
355 21 8 338 347 24 16 13 328 251 184 113 106 111 100 99 117 134 143 133 119 107 88 77 65 58 48 51 62 60 55 42 51 38 31 24 21 18 15 13 10 5 2 2 360 358 354 351 351
25 7 339 316 305 321 308 342 238 359 78 109 100 104 103 100 132 140 137 138 121 104 102 76 64 64 54 49 50 45 36 38 31 31 25 19 14 10 8 5 1 357 354 353 352 347 343 343 341
332 347 311 204 269 268 254 245 261 45 73 79 98 110 114 119 133 129 120 123 128 115 108 28 16 39 62 65 40 32 33 24 20 24 16 17 10 6 5 358 355 350 349 349 344 339 337 337 336
261 298 171 196 28 221 204 242 181 84 79 77 90 116 122 129 136 129 119 87 114 84 90 69 311 45 21 65 29 22 20 14 10 10 8 8 6 3 360 355 352 349 346 341 335 330 331 329 328
205 225 194 189 136 206 18 243 133 84 61 93 107 100 116 133 140 133 112 94 73 88 111 78 93 16 37 36 33 29 17 11 1 0 359 0 359 359 358 352 348 343 337 335 332 328 326 325 325
219 207 212 206 127 19 41 321 101 98 80 77 96 118 116 98 111 127 106 86 74 97 101 63 21 80 38 29 38 27 10 5 0 7 7 3 2 357 352 347 344 339 335 332 331 329 328 324 321
230 252 211 342 322 24 325 325 44 54 37 40 47 16 114 16 31 39 31 30 26 50 49 54 55 57 41 18 17 4 2 6 8 2 359 359 354 351 346 339 335 335 331 330 328 325 325 324 322
262 302 48 23 357 335 342 10 20 19 14 23 36 37 46 43 37 32 28 36 39 44 44 40 30 12 10 4 355 353 357 357 359 359 358 352 347 342 335 333 334 337 335 334 332 329 326 324 325
273 304 335 5 347 339 335 1 22 17 16 18 34 41 43 43 30 21 16 19 27 31 30 19 14 8 6 359 357 354 351 350 348 346 347 345 340 337 338 337 336 337 333 330 329 327 324 322 324
340 321 307 315 312 329 347 6 16 17 21 23 25 26 28 24 16 9 5 7 9 8 6 5 4 4 1 355 350 346 343 341 340 338 335 336 342 345 343 341 338 335 333 329 327 326 323 319 320
331 317 314 313 323 331 20 330 16 28 19 17 20 20 17 20 15 7 4 359 0 3 5 4 360 356 354 347 344 342 340 337 337 336 339 340 342 341 340 338 335 333 330 327 326 325 323 321 317
339 332 337 332 329 331 334 339 359 31 7 360 12 18 17 16 12 6 4 3 1 358 355 353 353 352 347 346 346 344 340 339 340 340 341 340 339 339 338 336 333 329 327 326 326 325 323 321 319
345 335 342 348 344 340 337 353 340 334 16 359 16 13 7 6 8 9 10 9 5 0 356 354 353 352 351 346 344 341 339 341 342 339 336 335 335 336 335 334 334 334 333 332 329 327 324 322 320
342 341 342 340 342 347 341 347 344 351 3 14 12 7 9 11 10 14 13 10 4 359 357 355 351 348 349 354 351 349 346 344 341 339 336 335 335 335 337 337 336 335 333 331 330 328 327 325 321
186 35 35 3 346 339 326 356 355 24 25 20 13 5 8 4 5 3 357 358 359 1 356 355 350 347 347 349 348 346 342 338 336 337 334 336 338 338 337 337 335 333 332 331 329 326 324 322 319
93 42 76 42 31 8 13 28 25 22 17 12 1 3 11 9 10 5 3 3 355 352 353 351 349 349 349 348 343 341 339 337 335 335 340 339 339 338 337 336 334 334 332 330 327 326 325 324 323
55 73 42 30 35 28 13 12 9 21 8 360 360 358 358 12 10 10 10 3 360 356 356 352 350 347 346 344 342 339 338 339 340 341 340 339 338 337 337 336 335 334 333 333 331 330 330 330 328
34 38 34 38 37 34 13 8 35 21 12 0 355 1 11 8 4 2 360 359 355 354 352 349 345 341 340 339 339 338 337 337 338 337 336 335 335 336 337 338 336 335 334 333 332 332 332 331 330
50 38 35 35 27 14 12 0 24 15 6 351 353 1 4 356 359 357 354 350 350 347 345 344 343 342 341 339 338 337 337 334 333 334 333 334 336 340 342 342 339 339 337 337 336 337 341 336 332